Location: Unspecified
(0.0000°N, 0.0000°E)
Time: 16:16:55
(UTC+00:00)

Vanguard 2 - Pass Details

Date: 28 November 2019
Orbit: 553 x 2938 km, 32.9° (Epoch: 13 December)

Event Time Altitude Azimuth Distance (km) Brightness Sun altitude
Rises 22:03:48 0° 208° (SSW) 4,762 12.0 -56.8°
Reaches altitude 10° 22:07:46 10° 193° (SSW) 4,167 11.5 -57.5°
Enters shadow 22:13:04 20° 165° (SSE) 3,860 11.1 -58.5°
